^^
Saratoga-Weather Station Historical Data
Daily Summary for September 26, 2021 Units:  Metric    English   Both
Daily Weekly Monthly Yearly Custom
  High: Low: Average:
Temperature: 4 °C 2.2 °C 3.1 °C
Dew Point: 3.6 °C 1.6 °C 2.6 °C
Humidity: 97% 94% 96%
Wind Speed: 6.4km/h 0km/h 1.3km/h
Wind Gust: 12.9km/h - -
Wind- - East
Pressure: 1006.1 hPa 1003.4 hPa -
Precipitation: 11.2 mm    
Historical Graphs
 
 
Tabular Data for September 26, 2021
Time Temperature Dew Point Pressure Wind Wind Speed Wind Gust Humidity Rainfall Rate (Hourly) solar
00:00 3.6 °C 2.9 °C 1005.4 hPa East 3.2 km/h 11.3 km/h 95% 0.0 mm 0 W/m2
00:05 3.5 °C 2.8 °C 1005.4 hPa East 4.7 km/h 4.8 km/h 95% 0.0 mm 0 W/m2
00:10 3.4 °C 2.7 °C 1005.4 hPa East 3.2 km/h 6.4 km/h 95% 0.0 mm 0 W/m2
00:15 3.4 °C 2.7 °C 1005.4 hPa ESE 3.2 km/h 6.4 km/h 95% 0.0 mm 0 W/m2
00:20 3.4 °C 2.7 °C 1005.4 hPa East 4.7 km/h 6.4 km/h 95% 0.0 mm 0 W/m2
00:25 3.3 °C 2.6 °C 1005.4 hPa NE 1.4 km/h 4.8 km/h 95% 0.0 mm 0 W/m2
00:30 3.3 °C 2.6 °C 1005.4 hPa ESE 4.7 km/h 4.8 km/h 95% 0.0 mm 0 W/m2
00:35 3.3 °C 2.6 °C 1005.4 hPa Calm     95% 0.0 mm 0 W/m2
00:40 3.3 °C 2.6 °C 1005.4 hPa ENE 3.2 km/h 8 km/h 95% 0.0 mm 0 W/m2
00:45 3.3 °C 2.6 °C 1005.4 hPa SE 6.4 km/h 9.7 km/h 95% 0.0 mm 0 W/m2
00:50 3.3 °C 2.6 °C 1005.4 hPa East 3.2 km/h 12.9 km/h 95% 0.0 mm 0 W/m2
00:55 3.2 °C 2.5 °C 1005.4 hPa East 6.4 km/h 6.4 km/h 95% 0.0 mm 0 W/m2
01:00 3.2 °C 2.5 °C 1005.4 hPa East 3.2 km/h 12.9 km/h 95% 0.0 mm 0 W/m2
01:05 3.2 °C 2.5 °C 1005.4 hPa East 3.2 km/h 6.4 km/h 95% 0.0 mm 0 W/m2
01:10 3.1 °C 2.2 °C 1005.4 hPa ESE 3.2 km/h 8 km/h 94% 0.0 mm 0 W/m2
01:15 3.1 °C 2.2 °C 1005.4 hPa East 3.2 km/h 9.7 km/h 94% 0.0 mm 0 W/m2
01:20 3 °C 2.3 °C 1005.4 hPa East 4.7 km/h 6.4 km/h 95% 0.0 mm 0 W/m2
01:25 3 °C 2.3 °C 1005.4 hPa ESE 1.4 km/h 6.4 km/h 95% 0.2 mm 0 W/m2
01:30 2.9 °C 2.2 °C 1005.4 hPa East 1.4 km/h 3.2 km/h 95% 0.2 mm 0 W/m2
01:35 2.9 °C 2.2 °C 1005.4 hPa Calm   3.2 km/h 95% 0.2 mm 0 W/m2
01:40 2.9 °C 2.2 °C 1005.4 hPa East 1.4 km/h 4.8 km/h 95% 0.2 mm 0 W/m2
01:45 2.9 °C 2.2 °C 1005.4 hPa NE 1.4 km/h 6.4 km/h 95% 0.2 mm 0 W/m2
01:50 2.8 °C 2.1 °C 1005.4 hPa East 1.4 km/h 3.2 km/h 95% 0.5 mm 0 W/m2
01:55 2.8 °C 2.1 °C 1005.4 hPa ENE 3.2 km/h 3.2 km/h 95% 0.5 mm 0 W/m2
02:00 2.8 °C 2.1 °C 1005.4 hPa ESE 3.2 km/h 3.2 km/h 95% 0.5 mm 0 W/m2
02:05 2.8 °C 2.1 °C 1005.4 hPa ENE 1.4 km/h 1.6 km/h 95% 0.5 mm 0 W/m2
02:10 2.8 °C 2.1 °C 1005.4 hPa ENE 1.4 km/h 1.6 km/h 95% 0.5 mm 0 W/m2
02:15 2.7 °C 2 °C 1005.4 hPa SE 1.4 km/h 6.4 km/h 95% 0.5 mm 0 W/m2
02:20 2.7 °C 2 °C 1005.4 hPa East 1.4 km/h 4.8 km/h 95% 0.5 mm 0 W/m2
02:25 2.7 °C 2 °C 1005.4 hPa ESE 4.7 km/h 4.8 km/h 95% 0.2 mm 0 W/m2
02:30 2.7 °C 2 °C 1005.4 hPa East 4.7 km/h 4.8 km/h 95% 0.2 mm 0 W/m2
02:35 2.7 °C 2 °C 1005.4 hPa ENE 1.4 km/h 11.3 km/h 95% 0.2 mm 0 W/m2
02:40 2.7 °C 2 °C 1005.4 hPa East 3.2 km/h 4.8 km/h 95% 0.5 mm 0 W/m2
02:45 2.7 °C 2 °C 1005.4 hPa ESE 3.2 km/h 9.7 km/h 95% 0.5 mm 0 W/m2
02:50 2.7 °C 2 °C 1005.8 hPa Calm   8 km/h 95% 0.2 mm 0 W/m2
02:55 2.6 °C 1.9 °C 1005.8 hPa East 1.4 km/h 9.7 km/h 95% 0.2 mm 0 W/m2
03:00 2.6 °C 1.9 °C 1005.8 hPa ENE 1.4 km/h 8 km/h 95% 0.2 mm 0 W/m2
03:05 2.6 °C 1.9 °C 1005.8 hPa ESE 1.4 km/h 3.2 km/h 95% 0.2 mm 0 W/m2
03:10 2.6 °C 1.9 °C 1005.8 hPa ESE 1.4 km/h 4.8 km/h 95% 0.2 mm 0 W/m2
03:15 2.6 °C 1.9 °C 1005.8 hPa ESE 6.4 km/h 6.4 km/h 95% 0.2 mm 0 W/m2
03:20 2.6 °C 1.9 °C 1005.8 hPa ESE 4.7 km/h 6.4 km/h 95% 0.2 mm 0 W/m2
03:25 2.6 °C 2 °C 1005.8 hPa NE 3.2 km/h 4.8 km/h 96% 0.2 mm 0 W/m2
03:30 2.6 °C 2 °C 1005.4 hPa ESE 1.4 km/h 4.8 km/h 96% 0.2 mm 0 W/m2
03:35 2.5 °C 1.9 °C 1005.8 hPa ESE 3.2 km/h 6.4 km/h 96% 0.5 mm 0 W/m2
03:40 2.5 °C 1.9 °C 1005.4 hPa Calm   3.2 km/h 96% 0.2 mm 0 W/m2
03:45 2.5 °C 1.9 °C 1005.4 hPa East 1.4 km/h 4.8 km/h 96% 0.2 mm 0 W/m2
03:50 2.5 °C 1.9 °C 1005.4 hPa Calm   1.6 km/h 96% 0.5 mm 0 W/m2
03:55 2.5 °C 1.9 °C 1005.4 hPa East 3.2 km/h 4.8 km/h 96% 0.5 mm 0 W/m2
04:00 2.4 °C 1.7 °C 1005.4 hPa ENE 3.2 km/h 3.2 km/h 95% 0.5 mm 0 W/m2
04:05 2.4 °C 1.7 °C 1005.4 hPa Calm   6.4 km/h 95% 0.5 mm 0 W/m2
04:10 2.4 °C 1.7 °C 1005.4 hPa ESE 1.4 km/h 6.4 km/h 95% 0.5 mm 0 W/m2
04:15 2.4 °C 1.7 °C 1005.4 hPa Calm   3.2 km/h 95% 0.5 mm 0 W/m2
04:20 2.3 °C 1.7 °C 1005.4 hPa ESE 3.2 km/h 4.8 km/h 96% 0.5 mm 0 W/m2
04:25 2.3 °C 1.7 °C 1005.4 hPa East 1.4 km/h 3.2 km/h 96% 0.5 mm 0 W/m2
04:30 2.3 °C 1.7 °C 1005.4 hPa East 1.4 km/h 3.2 km/h 96% 0.5 mm 0 W/m2
04:35 2.3 °C 1.7 °C 1005.4 hPa East 1.4 km/h 1.6 km/h 96% 0.5 mm 0 W/m2
04:40 2.3 °C 1.7 °C 1005.4 hPa ENE 1.4 km/h 3.2 km/h 96% 0.5 mm 0 W/m2
04:45 2.3 °C 1.7 °C 1005.4 hPa East 3.2 km/h 4.8 km/h 96% 0.5 mm 0 W/m2
04:50 2.3 °C 1.7 °C 1005.4 hPa Calm   6.4 km/h 96% 0.5 mm 0 W/m2
04:55 2.3 °C 1.7 °C 1005.4 hPa East 1.4 km/h 3.2 km/h 96% 0.5 mm 0 W/m2
05:00 2.3 °C 1.7 °C 1005.4 hPa ENE 3.2 km/h 4.8 km/h 96% 0.5 mm 0 W/m2
05:05 2.3 °C 1.7 °C 1005.4 hPa ENE 1.4 km/h 3.2 km/h 96% 0.5 mm 0 W/m2
05:10 2.2 °C 1.6 °C 1005.4 hPa Calm   1.6 km/h 96% 0.5 mm 0 W/m2
05:15 2.2 °C 1.6 °C 1005.4 hPa ENE 1.4 km/h 3.2 km/h 96% 0.5 mm 0 W/m2
05:20 2.2 °C 1.6 °C 1005.4 hPa East 1.4 km/h 4.8 km/h 96% 0.5 mm 0 W/m2
05:25 2.2 °C 1.6 °C 1005.4 hPa ESE 3.2 km/h 4.8 km/h 96% 0.5 mm 0 W/m2
05:30 2.2 °C 1.6 °C 1005.4 hPa ENE 1.4 km/h 3.2 km/h 96% 0.5 mm 0 W/m2
05:36 2.2 °C 1.6 °C 1005.4 hPa ENE 1.4 km/h 3.2 km/h 96% 0.5 mm 0 W/m2
05:41 2.2 °C 1.6 °C 1005.4 hPa East 3.2 km/h 4.8 km/h 96% 0.5 mm 0 W/m2
05:46 2.2 °C 1.6 °C 1005.4 hPa East 1.4 km/h 6.4 km/h 96% 0.5 mm 0 W/m2
05:51 2.2 °C 1.6 °C 1005.8 hPa East 1.4 km/h 3.2 km/h 96% 0.2 mm 0 W/m2
05:56 2.2 °C 1.6 °C 1005.8 hPa ESE 3.2 km/h 6.4 km/h 96% 0.2 mm 0 W/m2
06:01 2.2 °C 1.6 °C 1005.8 hPa Calm   3.2 km/h 96% 0.2 mm 0 W/m2
06:06 2.2 °C 1.6 °C 1005.4 hPa Calm   1.6 km/h 96% 0.0 mm 0 W/m2
06:11 2.2 °C 1.6 °C 1005.8 hPa Calm   1.6 km/h 96% 0.0 mm 0 W/m2
06:16 2.2 °C 1.6 °C 1005.4 hPa East 1.4 km/h 4.8 km/h 96% 0.0 mm 0 W/m2
06:21 2.2 °C 1.6 °C 1005.4 hPa ENE 1.4 km/h 3.2 km/h 96% 0.0 mm 0 W/m2
06:26 2.2 °C 1.6 °C 1005.4 hPa ESE 1.4 km/h 3.2 km/h 96% 0.2 mm 0 W/m2
06:31 2.2 °C 1.6 °C 1005.4 hPa ENE 3.2 km/h 4.8 km/h 96% 0.2 mm 0 W/m2
06:36 2.2 °C 1.6 °C 1005.4 hPa ENE 1.4 km/h 3.2 km/h 96% 0.2 mm 0 W/m2
06:41 2.2 °C 1.6 °C 1005.4 hPa Calm   3.2 km/h 96% 0.2 mm 0 W/m2
06:46 2.2 °C 1.6 °C 1005.4 hPa East 1.4 km/h 1.6 km/h 96% 0.2 mm 0 W/m2
06:51 2.2 °C 1.6 °C 1005.4 hPa Calm   1.6 km/h 96% 0.2 mm 0 W/m2
06:56 2.2 °C 1.6 °C 1005.4 hPa Calm   1.6 km/h 96% 0.2 mm 0 W/m2
07:01 2.2 °C 1.6 °C 1005.4 hPa Calm   3.2 km/h 96% 0.2 mm 0 W/m2
07:06 2.2 °C 1.6 °C 1005.4 hPa Calm     96% 0.2 mm 0 W/m2
07:11 2.2 °C 1.6 °C 1005.4 hPa East 3.2 km/h 3.2 km/h 96% 0.2 mm 0 W/m2
07:16 2.3 °C 1.7 °C 1005.4 hPa East 3.2 km/h 3.2 km/h 96% 0.2 mm 0 W/m2
07:21 2.3 °C 1.7 °C 1005.4 hPa Calm   3.2 km/h 96% 0.2 mm 0 W/m2
07:26 2.3 °C 1.7 °C 1005.4 hPa Calm   3.2 km/h 96% 0.0 mm 0 W/m2
07:31 2.3 °C 1.7 °C 1005.4 hPa Calm     96% 0.0 mm 0 W/m2
07:36 2.3 °C 1.7 °C 1005.4 hPa Calm   3.2 km/h 96% 0.0 mm 0 W/m2
07:41 2.3 °C 1.7 °C 1005.4 hPa East 3.2 km/h 3.2 km/h 96% 0.0 mm 0 W/m2
07:46 2.3 °C 1.7 °C 1005.4 hPa Calm   3.2 km/h 96% 0.2 mm 0 W/m2
07:51 2.3 °C 1.7 °C 1005.4 hPa East 1.4 km/h 3.2 km/h 96% 0.2 mm 0 W/m2
07:56 2.3 °C 1.7 °C 1005.4 hPa Calm   1.6 km/h 96% 0.2 mm 0 W/m2
08:01 2.3 °C 1.7 °C 1005.4 hPa Calm   3.2 km/h 96% 0.2 mm 0 W/m2
08:06 2.3 °C 1.7 °C 1005.4 hPa Calm   3.2 km/h 96% 0.2 mm 0 W/m2
08:11 2.3 °C 1.7 °C 1005.4 hPa Calm   3.2 km/h 96% 0.2 mm 0 W/m2
08:16 2.3 °C 1.7 °C 1005.4 hPa Calm     96% 0.2 mm 0 W/m2
08:21 2.3 °C 1.7 °C 1005.4 hPa East 1.4 km/h 4.8 km/h 96% 0.2 mm 0 W/m2
08:26 2.3 °C 1.7 °C 1005.4 hPa ESE 1.4 km/h 3.2 km/h 96% 0.2 mm 0 W/m2
08:31 2.3 °C 1.7 °C 1005.4 hPa Calm   4.8 km/h 96% 0.2 mm 0 W/m2
08:36 2.3 °C 1.7 °C 1005.4 hPa ESE 1.4 km/h 3.2 km/h 96% 0.2 mm 0 W/m2
08:41 2.3 °C 1.7 °C 1005.4 hPa ESE 3.2 km/h 4.8 km/h 96% 0.2 mm 0 W/m2
08:46 2.3 °C 1.9 °C 1005.4 hPa Calm   3.2 km/h 97% 0.0 mm 0 W/m2
08:51 2.3 °C 1.9 °C 1005.8 hPa East 3.2 km/h 3.2 km/h 97% 0.0 mm 0 W/m2
08:56 2.3 °C 1.7 °C 1005.8 hPa East 3.2 km/h 4.8 km/h 96% 0.0 mm 5 W/m2
09:01 2.3 °C 1.7 °C 1005.8 hPa East 1.4 km/h 3.2 km/h 96% 0.0 mm 7 W/m2
09:06 2.3 °C 1.7 °C 1005.8 hPa Calm   4.8 km/h 96% 0.0 mm 7 W/m2
09:11 2.4 °C 1.8 °C 1005.8 hPa East 1.4 km/h 3.2 km/h 96% 0.0 mm 9 W/m2
09:16 2.4 °C 1.8 °C 1005.8 hPa Calm   1.6 km/h 96% 0.0 mm 11 W/m2
09:21 2.4 °C 1.8 °C 1005.8 hPa East 3.2 km/h 3.2 km/h 96% 0.0 mm 18 W/m2
09:26 2.4 °C 1.8 °C 1005.8 hPa ESE 1.4 km/h 3.2 km/h 96% 0.0 mm 21 W/m2
09:31 2.4 °C 1.8 °C 1005.8 hPa ESE 1.4 km/h 4.8 km/h 96% 0.0 mm 25 W/m2
09:36 2.4 °C 1.8 °C 1005.8 hPa Calm   6.4 km/h 96% 0.0 mm 26 W/m2
09:41 2.4 °C 1.8 °C 1005.8 hPa East 1.4 km/h 4.8 km/h 96% 0.0 mm 33 W/m2
09:46 2.4 °C 1.8 °C 1005.8 hPa ESE 1.4 km/h   96% 0.0 mm 32 W/m2
09:51 2.4 °C 1.8 °C 1005.8 hPa ESE 4.7 km/h 4.8 km/h 96% 0.0 mm 25 W/m2
09:56 2.5 °C 1.9 °C 1005.8 hPa East 3.2 km/h 4.8 km/h 96% 0.0 mm 25 W/m2
10:01 2.6 °C 2.2 °C 1005.8 hPa East 3.2 km/h 4.8 km/h 97% 0.0 mm 25 W/m2
10:06 2.6 °C 2.2 °C 1005.8 hPa ESE 1.4 km/h 4.8 km/h 97% 0.0 mm 35 W/m2
10:12 2.7 °C 2.3 °C 1005.8 hPa SE 3.2 km/h 4.8 km/h 97% 0.0 mm 33 W/m2
10:22 2.7 °C 2.3 °C 1005.8 hPa ESE 1.4 km/h 3.2 km/h 97% 0.0 mm 39 W/m2
10:27 2.7 °C 2.3 °C 1005.8 hPa ENE 1.4 km/h 3.2 km/h 97% 0.0 mm 46 W/m2
10:32 2.7 °C 2.3 °C 1005.8 hPa East 3.2 km/h 4.8 km/h 97% 0.0 mm 42 W/m2
10:37 2.7 °C 2.3 °C 1006.1 hPa SSE 1.4 km/h 6.4 km/h 97% 0.0 mm 32 W/m2
10:42 2.8 °C 2.4 °C 1005.8 hPa East 3.2 km/h 4.8 km/h 97% 0.0 mm 25 W/m2
10:47 2.8 °C 2.4 °C 1006.1 hPa East 1.4 km/h 4.8 km/h 97% 0.0 mm 33 W/m2
10:52 2.8 °C 2.4 °C 1005.8 hPa ESE 3.2 km/h 4.8 km/h 97% 0.0 mm 39 W/m2
10:57 2.8 °C 2.4 °C 1005.8 hPa ESE 1.4 km/h 3.2 km/h 97% 0.0 mm 28 W/m2
11:02 2.9 °C 2.5 °C 1005.8 hPa ENE 4.7 km/h 4.8 km/h 97% 0.0 mm 25 W/m2
11:07 2.9 °C 2.5 °C 1005.8 hPa Calm   1.6 km/h 97% 0.0 mm 26 W/m2
11:12 2.9 °C 2.5 °C 1005.8 hPa Calm   6.4 km/h 97% 0.0 mm 28 W/m2
11:17 2.9 °C 2.5 °C 1005.8 hPa East 3.2 km/h 3.2 km/h 97% 0.0 mm 26 W/m2
11:22 2.9 °C 2.5 °C 1005.8 hPa East 3.2 km/h 6.4 km/h 97% 0.0 mm 23 W/m2
11:27 2.9 °C 2.5 °C 1005.8 hPa East 1.4 km/h 4.8 km/h 97% 0.0 mm 25 W/m2
11:32 2.9 °C 2.5 °C 1005.8 hPa East 1.4 km/h 6.4 km/h 97% 0.0 mm 23 W/m2
11:37 2.9 °C 2.5 °C 1005.4 hPa ESE 1.4 km/h 4.8 km/h 97% 0.0 mm 26 W/m2
11:42 2.9 °C 2.5 °C 1005.4 hPa ESE 4.7 km/h 6.4 km/h 97% 0.0 mm 33 W/m2
11:47 3 °C 2.6 °C 1005.4 hPa Calm   4.8 km/h 97% 0.0 mm 26 W/m2
11:52 3.1 °C 2.7 °C 1005.4 hPa Calm     97% 0.0 mm 23 W/m2
11:57 3.1 °C 2.7 °C 1005.1 hPa ESE 1.4 km/h 3.2 km/h 97% 0.0 mm 25 W/m2
12:02 3.1 °C 2.7 °C 1005.1 hPa East 4.7 km/h 4.8 km/h 97% 0.0 mm 19 W/m2
12:07 3.1 °C 2.7 °C 1005.1 hPa East 1.4 km/h 3.2 km/h 97% 0.0 mm 18 W/m2
12:12 3.1 °C 2.7 °C 1005.1 hPa ESE 1.4 km/h 4.8 km/h 97% 0.0 mm 16 W/m2
12:17 3.1 °C 2.7 °C 1005.1 hPa ESE 1.4 km/h 3.2 km/h 97% 0.0 mm 16 W/m2
12:22 3.1 °C 2.7 °C 1005.1 hPa East 1.4 km/h 4.8 km/h 97% 0.0 mm 19 W/m2
12:27 3.1 °C 2.7 °C 1005.1 hPa ENE 1.4 km/h 6.4 km/h 97% 0.0 mm 25 W/m2
12:32 3.1 °C 2.7 °C 1005.1 hPa East 1.4 km/h 4.8 km/h 97% 0.0 mm 30 W/m2
12:37 3.2 °C 2.8 °C 1005.1 hPa East 3.2 km/h 6.4 km/h 97% 0.0 mm 32 W/m2
12:42 3.2 °C 2.8 °C 1005.1 hPa SE 3.2 km/h 3.2 km/h 97% 0.0 mm 39 W/m2
12:47 3.2 °C 2.8 °C 1004.7 hPa ESE 1.4 km/h 4.8 km/h 97% 0.0 mm 37 W/m2
12:52 3.3 °C 2.9 °C 1005.1 hPa ESE 3.2 km/h 3.2 km/h 97% 0.0 mm 28 W/m2
12:57 3.3 °C 2.9 °C 1005.1 hPa ESE 1.4 km/h 4.8 km/h 97% 0.0 mm 26 W/m2
13:02 3.3 °C 2.9 °C 1004.7 hPa East 3.2 km/h 3.2 km/h 97% 0.0 mm 33 W/m2
13:07 3.3 °C 2.9 °C 1004.7 hPa ESE 1.4 km/h 4.8 km/h 97% 0.2 mm 32 W/m2
13:12 3.3 °C 2.9 °C 1004.7 hPa East 3.2 km/h 4.8 km/h 97% 0.2 mm 32 W/m2
13:17 3.3 °C 2.9 °C 1004.7 hPa ESE 4.7 km/h 4.8 km/h 97% 0.2 mm 37 W/m2
13:22 3.3 °C 2.9 °C 1004.7 hPa ESE 4.7 km/h 6.4 km/h 97% 0.2 mm 39 W/m2
13:27 3.3 °C 2.9 °C 1004.7 hPa ENE 3.2 km/h 4.8 km/h 97% 0.2 mm 37 W/m2
13:32 3.3 °C 2.9 °C 1004.7 hPa East 1.4 km/h 3.2 km/h 97% 0.2 mm 32 W/m2
13:37 3.3 °C 2.9 °C 1004.7 hPa East 3.2 km/h 6.4 km/h 97% 0.2 mm 30 W/m2
13:42 3.3 °C 2.9 °C 1004.7 hPa ESE 1.4 km/h 6.4 km/h 97% 0.2 mm 21 W/m2
13:47 3.3 °C 2.9 °C 1004.7 hPa NE 1.4 km/h 6.4 km/h 97% 0.5 mm 23 W/m2
13:52 3.4 °C 3 °C 1004.7 hPa ENE 3.2 km/h 6.4 km/h 97% 0.5 mm 25 W/m2
13:57 3.4 °C 3 °C 1004.7 hPa ENE 1.4 km/h 3.2 km/h 97% 0.5 mm 21 W/m2
14:02 3.4 °C 3 °C 1004.7 hPa East 1.4 km/h 6.4 km/h 97% 0.5 mm 21 W/m2
14:07 3.4 °C 3 °C 1004.4 hPa Calm   3.2 km/h 97% 0.5 mm 18 W/m2
14:12 3.5 °C 3.1 °C 1004.4 hPa ESE 3.2 km/h 6.4 km/h 97% 0.5 mm 18 W/m2
14:17 3.5 °C 3.1 °C 1004.4 hPa East 1.4 km/h 4.8 km/h 97% 0.5 mm 19 W/m2
14:22 3.5 °C 3.1 °C 1004.4 hPa ENE 1.4 km/h 6.4 km/h 97% 0.5 mm 21 W/m2
14:27 3.5 °C 3.1 °C 1004.4 hPa East 3.2 km/h 3.2 km/h 97% 0.5 mm 25 W/m2
14:32 3.6 °C 3.2 °C 1004.4 hPa ESE 1.4 km/h 3.2 km/h 97% 0.8 mm 21 W/m2
14:37 3.6 °C 3.2 °C 1004.4 hPa East 4.7 km/h 6.4 km/h 97% 0.8 mm 23 W/m2
14:42 3.6 °C 3.2 °C 1004.4 hPa East 1.4 km/h 4.8 km/h 97% 1.0 mm 21 W/m2
14:47 3.6 °C 3.2 °C 1004.4 hPa East 1.4 km/h 6.4 km/h 97% 0.8 mm 23 W/m2
14:52 3.6 °C 3.2 °C 1004.4 hPa East 3.2 km/h 3.2 km/h 97% 0.8 mm 16 W/m2
14:57 3.6 °C 3.2 °C 1004.4 hPa East 1.4 km/h 1.6 km/h 97% 1.0 mm 16 W/m2
15:02 3.6 °C 3.2 °C 1004.4 hPa ESE 3.2 km/h 3.2 km/h 97% 1.3 mm 21 W/m2
15:07 3.6 °C 3.2 °C 1004.4 hPa East 3.2 km/h 3.2 km/h 97% 1.0 mm 21 W/m2
15:12 3.7 °C 3.3 °C 1004.1 hPa East 3.2 km/h 4.8 km/h 97% 1.0 mm 23 W/m2
15:18 3.6 °C 3.2 °C 1004.4 hPa East 1.4 km/h 3.2 km/h 97% 1.3 mm 18 W/m2
15:23 3.6 °C 3.2 °C 1004.1 hPa Calm   3.2 km/h 97% 1.0 mm 19 W/m2
15:28 3.7 °C 3.3 °C 1004.4 hPa Calm   1.6 km/h 97% 1.3 mm 16 W/m2
15:33 3.7 °C 3.3 °C 1004.1 hPa Calm   4.8 km/h 97% 1.0 mm 14 W/m2
15:38 3.7 °C 3.3 °C 1004.1 hPa NE 1.4 km/h 3.2 km/h 97% 1.3 mm 14 W/m2
15:43 3.7 °C 3.3 °C 1004.1 hPa Calm   4.8 km/h 97% 1.0 mm 16 W/m2
15:48 3.7 °C 3.3 °C 1004.1 hPa East 1.4 km/h 3.2 km/h 97% 1.3 mm 12 W/m2
15:53 3.7 °C 3.3 °C 1004.1 hPa East 1.4 km/h 4.8 km/h 97% 1.3 mm 12 W/m2
15:58 3.7 °C 3.3 °C 1004.1 hPa ESE 3.2 km/h 3.2 km/h 97% 1.3 mm 9 W/m2
16:03 3.7 °C 3.3 °C 1004.1 hPa Calm   1.6 km/h 97% 1.0 mm 7 W/m2
16:08 3.8 °C 3.4 °C 1004.1 hPa Calm   3.2 km/h 97% 1.0 mm 5 W/m2
16:13 3.7 °C 3.3 °C 1004.1 hPa Calm   3.2 km/h 97% 1.0 mm 0 W/m2
16:18 3.8 °C 3.4 °C 1004.1 hPa East 3.2 km/h 3.2 km/h 97% 0.8 mm 0 W/m2
16:23 3.7 °C 3.3 °C 1004.1 hPa Calm   4.8 km/h 97% 1.0 mm 0 W/m2
16:28 3.7 °C 3.3 °C 1004.1 hPa Calm     97% 0.8 mm 0 W/m2
16:33 3.7 °C 3.3 °C 1004.1 hPa Calm   1.6 km/h 97% 0.8 mm 0 W/m2
16:38 3.7 °C 3.3 °C 1004.1 hPa ENE 1.4 km/h 3.2 km/h 97% 0.8 mm 0 W/m2
16:43 3.7 °C 3.3 °C 1004.1 hPa Calm   3.2 km/h 97% 0.8 mm 0 W/m2
16:48 3.7 °C 3.3 °C 1004.1 hPa Calm     97% 0.8 mm 0 W/m2
16:53 3.7 °C 3.3 °C 1004.1 hPa Calm     97% 0.8 mm 0 W/m2
16:58 3.7 °C 3.3 °C 1004.1 hPa ENE 3.2 km/h 3.2 km/h 97% 0.8 mm 0 W/m2
17:03 3.7 °C 3.3 °C 1004.1 hPa Calm   1.6 km/h 97% 0.8 mm 0 W/m2
17:08 3.7 °C 3.3 °C 1004.1 hPa Calm     97% 1.0 mm 0 W/m2
17:13 3.7 °C 3.3 °C 1004.1 hPa Calm     97% 1.0 mm 0 W/m2
17:18 3.7 °C 3.3 °C 1004.1 hPa Calm     97% 1.3 mm 0 W/m2
17:23 3.7 °C 3.3 °C 1004.1 hPa Calm   3.2 km/h 97% 1.0 mm 0 W/m2
17:28 3.7 °C 3.3 °C 1004.1 hPa Calm     97% 1.3 mm 0 W/m2
17:33 3.7 °C 3.3 °C 1004.1 hPa Calm     97% 1.3 mm 0 W/m2
17:38 3.7 °C 3.3 °C 1004.1 hPa Calm     97% 1.0 mm 0 W/m2
17:43 3.7 °C 3.3 °C 1004.1 hPa Calm     97% 1.0 mm 0 W/m2
17:48 3.6 °C 3.2 °C 1004.1 hPa Calm     97% 1.0 mm 0 W/m2
17:53 3.7 °C 3.3 °C 1004.1 hPa Calm     97% 1.0 mm 0 W/m2
17:58 3.6 °C 3.2 °C 1004.1 hPa Calm     97% 1.0 mm 0 W/m2
18:03 3.7 °C 3.3 °C 1004.1 hPa Calm     97% 1.3 mm 0 W/m2
18:08 3.7 °C 3.3 °C 1004.1 hPa Calm     97% 1.0 mm 0 W/m2
18:13 3.7 °C 3.3 °C 1004.1 hPa Calm   1.6 km/h 97% 1.3 mm 0 W/m2
18:18 3.7 °C 3.3 °C 1004.1 hPa Calm     97% 1.0 mm 0 W/m2
18:23 3.7 °C 3.3 °C 1004.1 hPa Calm     97% 1.0 mm 0 W/m2
18:28 3.7 °C 3.3 °C 1004.1 hPa Calm     97% 0.8 mm 0 W/m2
18:33 3.7 °C 3.3 °C 1004.1 hPa Calm     97% 0.8 mm 0 W/m2
18:38 3.7 °C 3.3 °C 1004.1 hPa East 1.4 km/h 1.6 km/h 97% 0.8 mm 0 W/m2
18:43 3.8 °C 3.4 °C 1004.1 hPa Calm     97% 0.8 mm 0 W/m2
18:48 3.8 °C 3.4 °C 1004.1 hPa Calm     97% 0.5 mm 0 W/m2
18:53 3.8 °C 3.4 °C 1004.1 hPa Calm   3.2 km/h 97% 0.5 mm 0 W/m2
18:58 3.8 °C 3.4 °C 1004.1 hPa Calm     97% 0.5 mm 0 W/m2
19:03 3.8 °C 3.4 °C 1004.1 hPa Calm   3.2 km/h 97% 0.2 mm 0 W/m2
19:08 3.8 °C 3.4 °C 1004.1 hPa Calm     97% 0.2 mm 0 W/m2
19:13 3.8 °C 3.4 °C 1004.1 hPa Calm   1.6 km/h 97% 0.2 mm 0 W/m2
19:18 3.8 °C 3.4 °C 1004.1 hPa Calm     97% 0.5 mm 0 W/m2
19:23 3.8 °C 3.4 °C 1004.1 hPa Calm     97% 1.0 mm 0 W/m2
19:28 3.8 °C 3.4 °C 1004.1 hPa Calm     97% 1.0 mm 0 W/m2
19:33 3.8 °C 3.4 °C 1004.1 hPa Calm   1.6 km/h 97% 1.0 mm 0 W/m2
19:38 3.8 °C 3.4 °C 1004.1 hPa Calm     97% 1.3 mm 0 W/m2
19:43 3.8 °C 3.4 °C 1004.1 hPa Calm   1.6 km/h 97% 1.3 mm 0 W/m2
19:48 3.8 °C 3.4 °C 1003.7 hPa East 1.4 km/h 3.2 km/h 97% 1.3 mm 0 W/m2
19:53 3.8 °C 3.4 °C 1004.1 hPa Calm     97% 1.3 mm 0 W/m2
19:58 3.8 °C 3.4 °C 1004.1 hPa Calm   3.2 km/h 97% 1.3 mm 0 W/m2
20:03 3.8 °C 3.4 °C 1004.1 hPa Calm     97% 1.3 mm 0 W/m2
20:09 3.8 °C 3.4 °C 1003.7 hPa Calm     97% 1.3 mm 0 W/m2
20:14 3.8 °C 3.4 °C 1003.7 hPa Calm     97% 1.0 mm 0 W/m2
20:19 3.8 °C 3.4 °C 1004.1 hPa Calm   1.6 km/h 97% 0.8 mm 0 W/m2
20:24 3.8 °C 3.4 °C 1003.7 hPa Calm     97% 0.5 mm 0 W/m2
20:29 3.8 °C 3.4 °C 1004.1 hPa Calm     97% 0.5 mm 0 W/m2
20:34 3.8 °C 3.4 °C 1003.7 hPa Calm     97% 0.5 mm 0 W/m2
20:39 3.8 °C 3.4 °C 1004.1 hPa Calm     97% 0.8 mm 0 W/m2
20:44 3.8 °C 3.4 °C 1004.1 hPa Calm     97% 1.3 mm 0 W/m2
20:49 3.8 °C 3.4 °C 1004.1 hPa Calm     97% 1.5 mm 0 W/m2
20:54 3.8 °C 3.4 °C 1003.7 hPa Calm     97% 1.5 mm 0 W/m2
20:59 3.8 °C 3.4 °C 1004.1 hPa Calm     97% 1.5 mm 0 W/m2
21:04 3.8 °C 3.4 °C 1004.1 hPa Calm     97% 1.5 mm 0 W/m2
21:09 3.8 °C 3.4 °C 1003.7 hPa Calm     97% 2.3 mm 0 W/m2
21:14 3.8 °C 3.4 °C 1003.7 hPa Calm     97% 2.5 mm 0 W/m2
21:19 3.8 °C 3.4 °C 1003.7 hPa Calm     97% 2.5 mm 0 W/m2
21:24 3.9 °C 3.5 °C 1003.7 hPa Calm     97% 2.3 mm 0 W/m2
21:29 3.9 °C 3.5 °C 1003.7 hPa Calm     97% 2.3 mm 0 W/m2
21:34 3.9 °C 3.5 °C 1003.7 hPa Calm     97% 2.3 mm 0 W/m2
21:39 3.8 °C 3.4 °C 1004.1 hPa Calm     97% 2.3 mm 0 W/m2
21:44 3.8 °C 3.4 °C 1003.7 hPa Calm     97% 1.8 mm 0 W/m2
21:49 3.8 °C 3.4 °C 1003.7 hPa Calm     97% 1.5 mm 0 W/m2
21:54 3.8 °C 3.4 °C 1003.7 hPa Calm     97% 1.5 mm 0 W/m2
21:59 3.8 °C 3.4 °C 1003.7 hPa Calm     97% 1.5 mm 0 W/m2
22:04 3.8 °C 3.4 °C 1003.7 hPa Calm     97% 1.5 mm 0 W/m2
22:09 3.9 °C 3.5 °C 1003.7 hPa Calm     97% 0.8 mm 0 W/m2
22:14 3.9 °C 3.5 °C 1003.7 hPa Calm     97% 0.5 mm 0 W/m2
22:19 3.9 °C 3.5 °C 1003.7 hPa Calm     97% 0.2 mm 0 W/m2
22:24 3.9 °C 3.5 °C 1003.7 hPa Calm     97% 0.2 mm 0 W/m2
22:29 3.9 °C 3.5 °C 1003.7 hPa Calm     97% 0.2 mm 0 W/m2
22:34 3.9 °C 3.5 °C 1003.7 hPa Calm     97% 0.0 mm 0 W/m2
22:39 3.9 °C 3.5 °C 1003.4 hPa Calm     97% 0.0 mm 0 W/m2
22:44 3.9 °C 3.5 °C 1003.7 hPa Calm     97% 0.0 mm 0 W/m2
22:49 3.9 °C 3.5 °C 1003.7 hPa Calm     97% 0.0 mm 0 W/m2
22:54 3.9 °C 3.5 °C 1003.7 hPa Calm     97% 0.0 mm 0 W/m2
22:59 3.9 °C 3.5 °C 1003.7 hPa Calm     97% 0.0 mm 0 W/m2
23:04 4 °C 3.6 °C 1003.7 hPa Calm     97% 0.0 mm 0 W/m2
23:09 3.9 °C 3.5 °C 1003.7 hPa Calm     97% 0.0 mm 0 W/m2
23:14 4 °C 3.6 °C 1003.4 hPa Calm     97% 0.0 mm 0 W/m2
23:19 3.9 °C 3.5 °C 1003.4 hPa Calm     97% 0.0 mm 0 W/m2
23:24 4 °C 3.6 °C 1003.4 hPa Calm     97% 0.0 mm 0 W/m2
23:29 4 °C 3.6 °C 1003.4 hPa Calm     97% 0.0 mm 0 W/m2
23:34 3.9 °C 3.5 °C 1003.4 hPa Calm     97% 0.0 mm 0 W/m2
23:39 3.9 °C 3.5 °C 1003.4 hPa Calm     97% 0.0 mm 0 W/m2
23:44 4 °C 3.6 °C 1003.4 hPa Calm     97% 0.0 mm 0 W/m2
23:49 4 °C 3.6 °C 1003.4 hPa Calm     97% 0.2 mm 0 W/m2
23:54 4 °C 3.6 °C 1003.4 hPa Calm     97% 0.2 mm 0 W/m2
23:59 4 °C 3.6 °C 1003.4 hPa Calm     97% 0.2 mm 0 W/m2
Juneau County Weather
Compliments of Weather Underground - 4 mb